IR0UGI-3 Weather Reports


Display with metric or nautical units.
time (UTC)temp
F
wind
direction
speed
MPH
gust
MPH
rain 1hr
in
rain 24hr
in
rain mn
in
humidity
%
barometer
mb
20260507164004 53 226 4.0 11.0 0.00 0.01 0.00 79 1021.0
20260507163004 52 219 7.0 9.0 0.00 0.01 0.00 76 1021.2
20260507161005 51 199 5.0 9.0 0.00 0.01 0.00 96 1021.3
20260507160005 50 199 6.0 8.0 0.00 0.01 0.00 97 1021.3
20260507154005 51 221 5.0 8.0 0.00 0.02 0.00 97 1021.2
20260507153005 51 214 5.0 8.0 0.00 0.02 0.00 95 1021.2
20260507150006 51 228 7.0 13.0 0.00 0.05 0.00 97 1021.3
20260507145005 51 211 8.0 11.0 0.00 0.06 0.00 96 1021.3
20260507144005 51 222 4.0 11.0 0.00 0.08 0.00 98 1021.5
20260507143005 51 213 4.0 14.0 0.00 0.09 0.00 95 1021.4
20260507141007 53 248 5.0 8.0 0.00 0.09 0.00 93 1021.3
20260507140006 53 239 5.0 7.0 0.00 0.09 0.00 95 1021.6
20260507135005 55 242 5.0 7.0 0.00 0.11 0.00 90 1021.8
20260507133005 54 269 3.0 7.0 0.00 0.13 0.00 90 1021.7
20260507132005 55 259 3.0 8.0 0.00 0.13 0.00 86 1021.9
20260507131005 55 261 4.0 11.0 0.00 0.13 0.00 82 1022.1
20260507130005 55 252 4.0 8.0 0.00 0.13 0.00 78 1021.8
20260507125006 56 235 4.0 7.0 0.00 0.14 0.00 78 1022.1
20260507124005 56 270 1.0 7.0 0.00 0.14 0.00 76 1022.2
20260507123005 56 231 2.0 8.0 0.00 0.14 0.00 85 1022.2
20260507122005 56 269 3.0 7.0 0.00 0.14 0.00 81 1022.2
20260507121005 55 269 4.0 8.0 0.00 0.14 0.00 79 1022.3
20260507115005 56 269 3.0 7.0 0.00 0.15 0.00 81 1022.3
20260507113005 57 244 4.0 7.0 0.00 0.19 0.00 82 1022.5
20260507112005 56 260 3.0 8.0 0.00 0.19 0.00 80 1022.6
20260507111005 57 265 2.0 7.0 0.00 0.19 0.00 83 1022.5
20260507105005 56 203 1.0 7.0 0.00 0.19 0.00 86 1022.7
20260507104005 56 231 3.0 9.0 0.00 0.19 0.00 82 1022.6
20260507102007 54 219 5.0 9.0 0.00 0.19 0.00 90 1022.8
20260507100005 53 253 3.0 8.0 0.00 0.19 0.00 91 1022.5
20260507095005 53 227 2.0 8.0 0.00 0.19 0.00 90 1022.6
20260507094005 54 224 4.0 9.0 0.00 0.19 0.00 85 1022.6
20260507092005 51 206 4.0 9.0 0.00 0.19 0.00 96 1022.7
20260507091005 52 206 4.0 9.0 0.00 0.19 0.00 95 1022.5
20260507090006 51 205 5.0 9.0 0.00 0.19 0.00 97 1022.7
20260507085005 51 203 6.0 9.0 0.00 0.19 0.00 97 1022.5
20260507083005 52 202 6.0 9.0 0.00 0.19 0.00 95 1022.5
20260507081005 53 211 4.0 8.0 0.00 0.19 0.00 94 1022.3
20260507080005 53 192 4.0 8.0 0.00 0.19 0.00 94 1022.3
20260507075005 53 210 2.0 8.0 0.00 0.19 0.00 94 1022.4
20260507074004 52 210 5.0 8.0 0.00 0.19 0.00 93 1022.3
20260507073005 51 210 3.0 8.0 0.00 0.19 0.00 96 1022.4
20260507072005 51 187 6.0 9.0 0.00 0.19 0.00 94 1022.5
20260507071005 51 185 5.0 8.0 0.00 0.19 0.00 96 1022.3
20260507070009 51 203 5.0 9.0 0.00 0.19 0.00 98 1022.2
20260507065005 51 190 7.0 11.0 0.00 0.19 0.00 95 1022.0
20260507064005 51 199 8.0 9.0 0.00 0.19 0.00 95 1021.7
20260507063005 51 195 8.0 9.0 0.00 0.19 0.00 94 1022.0
20260507062004 51 176 7.0 9.0 0.00 0.19 0.00 93 1021.9
20260507061004 51 191 7.0 9.0 0.00 0.19 0.00 93 1021.7
20260507055005 51 195 5.0 9.0 0.00 0.19 0.00 94 1021.9
20260507054005 51 200 8.0 9.0 0.00 0.19 0.00 93 1021.8
20260507053005 51 207 7.0 8.0 0.00 0.19 0.00 93 1021.6
20260507052005 51 190 8.0 9.0 0.00 0.19 0.00 94 1021.8
20260507051005 51 189 8.0 9.0 0.00 0.19 0.00 93 1021.6
20260507050006 50 188 8.0 9.0 0.00 0.19 0.00 94 1021.7
20260507045005 50 181 5.0 7.0 0.00 0.19 0.00 95 1021.9
20260507044004 50 166 5.0 9.0 0.00 0.19 0.00 96 1021.7
20260507043004 49 181 7.0 9.0 0.00 0.19 0.00 96 1021.6
20260507042005 49 187 8.0 11.0 0.00 0.19 0.00 96 1021.3
20260507041005 49 181 9.0 11.0 0.00 0.19 0.00 96 1021.2
20260507040005 49 186 8.0 11.0 0.00 0.19 0.00 96 1021.4
20260507035005 49 184 9.0 11.0 0.00 0.19 0.00 96 1021.3
20260507034005 49 182 8.0 11.0 0.00 0.19 0.00 96 1021.1
20260507032005 50 183 8.0 9.0 0.00 0.19 0.00 94 1021.3
20260507030004 50 195 7.0 9.0 0.00 0.19 0.00 93 1021.6
20260507025004 50 183 8.0 11.0 0.00 0.19 0.00 92 1021.4
20260507024005 51 183 8.0 11.0 0.00 0.19 0.00 91 1021.3
20260507022005 51 196 8.0 11.0 0.00 0.19 0.00 90 1021.3
20260507021005 51 188 7.0 11.0 0.00 0.19 0.00 89 1021.4
20260507020009 51 179 8.0 11.0 0.00 0.19 0.00 88 1021.5
20260507015005 51 151 8.0 9.0 0.00 0.19 0.00 89 1021.6
20260507014004 51 143 7.0 9.0 0.00 0.19 0.00 90 1021.6
20260507013004 50 167 6.0 8.0 0.00 0.19 0.00 92 1021.7
20260507012004 50 225 1.0 2.0 0.00 0.19 0.00 93 1021.7
20260507005005 49 127 1.0 7.0 0.00 0.19 0.00 94 1021.6
20260507004005 50 119 2.0 8.0 0.00 0.19 0.00 93 1021.6
20260507003005 50 80 2.0 17.0 0.00 0.19 0.00 94 1021.7
20260507002004 49 64 5.0 14.0 0.00 0.19 0.00 98 1021.8
20260507001004 49 22 10.0 13.0 0.00 0.19 0.00 99 1021.7
20260506235005 49 51 8.0 11.0 0.00 0.19 0.00 99 1022.0
20260506234004 49 47 7.0 8.0 0.00 0.19 0.00 99 1021.8
20260506233004 48 51 4.0 8.0 0.00 0.19 0.00 99 1022.0
20260506232004 49 0 0.0 4.0 0.00 0.19 0.00 99 1021.9
20260506231004 49 0 0.0 4.0 0.00 0.19 0.00 99 1021.8
20260506230004 50 229 2.0 4.0 0.00 0.19 0.00 95 1021.9
20260506225004 53 270 3.0 4.0 0.00 0.19 0.00 90 1021.6
20260506224004 53 147 2.0 6.0 0.00 0.19 0.00 78 1021.7
20260506223005 51 129 4.0 6.0 0.00 0.19 0.00 88 1021.8
20260506222005 50 328 2.0 4.0 0.00 0.19 0.00 97 1021.8
20260506221005 50 0 0.0 2.0 0.00 0.19 0.00 96 1021.9
20260506220009 50 155 2.0 4.0 0.00 0.19 0.00 95 1021.7
20260506215006 50 0 0.0 4.0 0.00 0.19 0.19 97 1021.8
20260506213004 50 79 4.0 15.0 0.00 0.20 0.19 99 1021.9
20260506212004 49 192 3.0 9.0 0.00 0.20 0.19 99 1021.6
20260506205004 49 134 1.0 8.0 0.00 0.20 0.19 99 1021.7
20260506204004 49 93 2.0 8.0 0.00 0.20 0.19 99 1021.9
20260506203005 49 48 4.0 6.0 0.00 0.20 0.19 99 1022.2
20260506202004 50 38 4.0 6.0 0.00 0.20 0.19 99 1022.1
20260506201004 50 352 3.0 4.0 0.00 0.21 0.19 99 1022.1
20260506200004 50 332 2.0 6.0 0.00 0.21 0.19 99 1022.0
20260506194004 50 349 3.0 4.0 0.00 0.21 0.19 99 1022.1
20260506193004 50 350 2.0 4.0 0.01 0.21 0.19 99 1022.1
20260506192004 50 338 2.0 4.0 0.01 0.21 0.19 99 1022.1
20260506191004 51 352 4.0 4.0 0.01 0.21 0.19 99 1022.0
20260506185004 50 23 4.0 7.0 0.01 0.21 0.19 99 1021.8
20260506184004 50 39 5.0 8.0 0.01 0.21 0.19 99 1021.8
20260506183004 50 36 4.0 11.0 0.00 0.20 0.18 99 1021.6
20260506182005 50 27 6.0 11.0 0.00 0.20 0.18 99 1021.4
20260506181004 51 30 8.0 11.0 0.00 0.20 0.18 99 1021.2
20260506180006 51 31 6.0 11.0 0.00 0.20 0.18 99 1021.4
20260506175004 51 15 5.0 8.0 0.00 0.20 0.18 99 1021.1
20260506174004 50 14 4.0 7.0 0.00 0.20 0.18 99 1021.1
20260506172004 50 289 2.0 4.0 0.00 0.20 0.18 99 1020.9
20260506170004 51 279 3.0 4.0 0.00 0.20 0.18 99 1020.9
20260506165005 51 285 4.0 7.0 0.00 0.20 0.18 94 1020.6